Location: Kellogg
(38.0159°N, 90.0546°W)
Time: 15:41:29
(UTC+00:00)

Vanguard 1 Rocket - Pass Details

Date: 14 September 2024
Orbit: 650 x 4218 km, 34.3° (Epoch: 07 October)

Event Time Altitude Azimuth Distance (km) Brightness Sun altitude
Rises 13:47:42 0° 278° (W) 7,128 11.4 23.7°
Reaches altitude 10° 13:51:52 10° 277° (W) 6,452 11.2 24.5°
Maximum altitude 14:15:25 72° 199° (SSW) 4,340 11.3 28.9°
Drops below altitude 10° 14:39:33 10° 120° (ESE) 6,573 13.2 33.3°
Sets 14:43:52 0° 118° (ESE) 7,257 13.1 34.1°
